This is the latest recevied weather packets stored in our database for station/object W2TAO. If no packets are shown the sender has not sent any weather packets the latest 10 day(s).
| Time | Temp. | Humidity | Pressure | Rain* | Wind** | Luminosity | Snow |
|---|---|---|---|---|---|---|---|
| 1777793094 | 3.33° C | 71% | 1012.3 hPa | 0 mm | - | 0 W/m² | - |
| 1777792791 | 3.33° C | 71% | 1012.5 hPa | 0 mm | - | 0 W/m² | - |
| 1777792488 | 3.33° C | 70% | 1012.5 hPa | 0 mm | - | 0 W/m² | - |
| 1777792184 | 3.33° C | 71% | 1012.3 hPa | 0 mm | - | 0 W/m² | - |
| 1777791881 | 3.33° C | 70% | 1012.5 hPa | 0 mm | - | 0 W/m² | - |
| 1777791580 | 3.33° C | 70% | 1012.6 hPa | 0 mm | - | 0 W/m² | - |
| 1777791277 | 3.89° C | 71% | 1012.4 hPa | 0 mm | - | 0 W/m² | - |
| 1777790974 | 3.89° C | 71% | 1012.4 hPa | 0 mm | - | 0 W/m² | - |
| 1777790672 | 3.89° C | 69% | 1012.4 hPa | 0 mm | - | 0 W/m² | - |
| 1777790368 | 3.89° C | 68% | 1012.4 hPa | 0 mm | - | 0 W/m² | - |
| 1777790066 | 3.89° C | 71% | 1012.3 hPa | 0 mm | - | 0 W/m² | - |
| 1777789765 | 3.89° C | 69% | 1012.5 hPa | 0 mm | - | 0 W/m² | - |
| 1777789463 | 3.89° C | 71% | 1012.6 hPa | 0 mm | - | 0 W/m² | - |
| 1777789161 | 3.89° C | 69% | 1012.7 hPa | 0 mm | - | 0 W/m² | - |
| 1777788857 | 3.89° C | 68% | 1012.7 hPa | 0 mm | - | 0 W/m² | - |
| 1777788553 | 3.89° C | 70% | 1012.7 hPa | 0 mm | - | 0 W/m² | - |
| 1777788248 | 3.89° C | 70% | 1012.7 hPa | 0 mm | - | 0 W/m² | - |
| 1777787944 | 3.89° C | 70% | 1012.9 hPa | 0 mm | - | 0 W/m² | - |
| 1777787639 | 3.89° C | 69% | 1012.8 hPa | 0 mm | - | 0 W/m² | - |
| 1777787335 | 3.89° C | 69% | 1012.7 hPa | 0 mm | - | 0 W/m² | - |
| 1777787031 | 4.44° C | 67% | 1012.7 hPa | 0 mm | - | 0 W/m² | - |
| 1777786729 | 4.44° C | 67% | 1012.8 hPa | 0 mm | - | 0 W/m² | - |
| 1777786427 | 4.44° C | 68% | 1012.8 hPa | 0 mm | - | 0 W/m² | - |
| 1777786123 | 4.44° C | 68% | 1012.8 hPa | 0 mm | - | 0 W/m² | - |
| 1777785820 | 4.44° C | 67% | 1012.6 hPa | 0 mm | - | 0 W/m² | - |
* Rain latest hour (hover to see other rain measurements)
** Current wind speed in m/s (hover to see current wind gust speed)